Flag for Thailand Weather past 2 weeks in Hat Yai, Thailand

Now
93 °F

Broken clouds.


Feels Like: 101 °F
Forecast: 78 / 91 °F
Wind: 15 mph from West

Location: Hat Yai Airport

Current Time: Aug 1, 2014 at 1:41:00 PM

Latest Report: Aug 1, 2014 at 1:00 PM


Visibility: N/A

Pressure: 29.77 "Hg

Humidity: 49%

Dew point: 72 °F

Location of Hat YaiLocation

Historic Weather in Hat Yai — Graph

°F

Hat Yai temperature yesterday

Maximum temperature yesterday: 93 °F (at 12:30 PM)
Minimum temperature yesterday: 79 °F (at 6:00 AM)
Average temperature yesterday: 86 °F

Past Weeks' High & Low Weather Summary

 TemperatureHumidityPressure
High97 °F (Jul 30, 1:00 PM)100% (Jul 20, 5:30 AM)29.89 "Hg (Jul 20, 5:30 AM)
Low73 °F (Jul 20, 5:30 AM)41% (Jul 24, 2:30 PM)29.68 "Hg (Jul 18, 4:00 PM)
Average84 °F74%29.79 "Hg
* Reported Jul 17 12:00 Noon — Aug 1 12:30 PM, Hat Yai, Weather by CustomWeather, © 2014

Note: Actual official high and low records may vary slightly from our data, if they occured in-between our weather recording intervals... More about our weather records

Advertising

Hat Yai weather history for previous 24 hours

 ConditionsComfort  
Time TempWeatherWind HumidityBarometerVisibility
12:30 PM
Aug 1
93 °FBroken clouds.10 mph53%29.77 "HgN/A
12:00 PM93 °FBroken clouds.13 mph53%29.77 "HgN/A
11:30 AM91 °FBroken clouds.13 mph56%29.80 "HgN/A
10:30 AM91 °FBroken clouds.13 mph56%29.80 "HgN/A
10:00 AM90 °FBroken clouds.14 mph59%29.80 "HgN/A
9:30 AM88 °FBroken clouds.13 mph62%29.83 "HgN/A
9:00 AM88 °FBroken clouds.8 mph62%29.83 "HgN/A
8:30 AM86 °FBroken clouds.10 mph70%29.83 "HgN/A
7:30 AM81 °FBroken clouds.5 mph84%29.80 "HgN/A
7:00 AM81 °FBroken clouds.2 mph79%29.80 "HgN/A
6:30 AM81 °FBroken clouds.6 mph79%29.77 "HgN/A
6:00 AM79 °FPassing clouds.5 mph84%29.77 "HgN/A
5:30 AM79 °FPassing clouds.3 mph84%29.77 "HgN/A
5:00 AM79 °FPartly cloudy.7 mph89%29.77 "HgN/A
4:30 AM81 °FPartly cloudy.3 mph84%29.77 "HgN/A
4:00 AM81 °FPartly cloudy.5 mph84%29.77 "HgN/A
3:30 AM79 °FPartly cloudy.3 mph89%29.77 "HgN/A
3:00 AM81 °FPartly cloudy.3 mph84%29.77 "HgN/A
2:30 AM79 °FPartly cloudy.6 mph89%29.77 "HgN/A
2:00 AM79 °FPartly cloudy.5 mph84%29.80 "HgN/A
1:30 AM77 °FPartly cloudy.2 mph89%29.80 "HgN/A
1:00 AM77 °FPartly cloudy.2 mph89%29.80 "HgN/A
12:30 AM79 °FPartly cloudy.3 mph84%29.80 "HgN/A
12:00 AM79 °FPartly cloudy.2 mph84%29.80 "HgN/A
11:30 PM
Jul 31
81 °FPartly cloudy.3 mph79%29.80 "HgN/A
11:00 PM81 °FPartly cloudy.3 mph79%29.80 "HgN/A
10:30 PM81 °FPartly cloudy.3 mph79%29.83 "HgN/A
10:00 PM81 °FPartly cloudy.2 mph79%29.80 "HgN/A
9:30 PM81 °FPartly cloudy.No wind79%29.80 "HgN/A
9:00 PM82 °FPartly cloudy.No wind74%29.80 "HgN/A
8:30 PM82 °FPartly cloudy.3 mph74%29.80 "HgN/A
8:00 PM82 °FPartly cloudy.3 mph74%29.80 "HgN/A
7:30 PM82 °FPartly cloudy.5 mph74%29.77 "HgN/A
7:00 PM84 °FPassing clouds.7 mph70%29.77 "HgN/A
6:30 PM86 °FPartly sunny.12 mph66%29.77 "HgN/A
6:00 PM86 °FPartly sunny.8 mph66%29.77 "HgN/A
5:30 PM88 °FBroken clouds.13 mph62%29.74 "HgN/A
5:00 PM90 °FBroken clouds.12 mph59%29.74 "HgN/A
4:30 PM91 °FBroken clouds.17 mph52%29.74 "HgN/A
4:00 PM90 °FBroken clouds.15 mph55%29.74 "HgN/A
3:30 PM90 °FBroken clouds.9 mph59%29.74 "HgN/A
3:00 PM90 °FBroken clouds.13 mph59%29.74 "HgN/A
2:30 PM91 °FCloudy.15 mph52%29.74 "HgN/A
2:00 PM91 °FBroken clouds.20 mph49%29.77 "HgN/A
1:30 PM91 °FBroken clouds.18 mph49%29.77 "HgN/A
1:00 PM93 °FBroken clouds.16 mph49%29.77 "HgN/A
Weather by CustomWeather, © 2014

See weather overviewHow to use our weather pages